Port Huron, MI

4:28 AM EDT on June 26, 2017 (GMT -0400)
Saint Clair County International

Weather History for KPHN - February, 2012

Change the Weather History Date:

Monday, February 20, 2012

  Actual Average (KMTC) Record (KMTC)
Temperature  
Mean Temperature 27 °F -  
Max Temperature 35 °F 35 °F 60 °F (2016)
Min Temperature 19 °F 20 °F -9 °F (2015)
Degree Days  
Heating Degree Days 38    
Moisture  
Dew Point 19 °F    
Average Humidity 74    
Maximum Humidity 93    
Minimum Humidity 56    
Precipitation  
Precipitation 0.00 in - - ()
Sea Level Pressure  
Sea Level Pressure 30.30 in    
Wind  
Wind Speed 3 mph (South)    
Max Wind Speed 8 mph    
Max Gust Speed -    
Visibility 10 miles    
Events      
Averages and records for this station are not official NWS values.
T = Trace of Precipitation, MM = Missing Value Source: NWS Daily Summary

Daily Weather History Graph

Daily Weather History Graph

Search for Another Location

Airport or City:

Trip Planner

Search our weather history database for the weather conditions in past years. The results will help you decide how hot, cold, wet, or windy it might be!

Date:

Astronomy

Feb. 20, 2012 Rise Set
Actual Time 7:20 AM EST 6:07 PM EST
Civil Twilight 6:52 AM EST 6:36 PM EST
Nautical Twilight 6:19 AM EST 7:09 PM EST
Astronomical Twilight 5:46 AM EST 7:42 PM EST
Moon 6:17 AM EST (2/20) 5:10 PM EST (2/20)
Length of Visible Light 11h 44m
Length of Day
10h 46m
Waning Crescent, 2% of the Moon is Illuminated
Feb 20
Waning Crescent
Feb 21
New
Feb 29
First Quarter
Mar 8
Full
Mar 14
Last Quarter

Hourly Weather History & Observations

Time (EST) Temp. Windchill Dew Point Humidity Pressure Visibility Wind Dir Wind Speed Gust Speed Precip Events Conditions
12:17 AM 23.0 °F 18.4 °F 17.6 °F 80% 30.20 in 10.0 mi WNW 3.5 mph - N/A   Scattered Clouds
12:37 AM 23.0 °F 17.0 °F 15.8 °F 74% 30.21 in 10.0 mi WNW 4.6 mph - N/A   Clear
12:57 AM 21.2 °F 14.9 °F 17.6 °F 86% 30.21 in 10.0 mi WNW 4.6 mph - N/A   Clear
1:16 AM 21.2 °F 14.9 °F 15.8 °F 80% 30.22 in 10.0 mi WNW 4.6 mph - N/A   Clear
1:37 AM 21.2 °F 16.4 °F 15.8 °F 80% 30.23 in 10.0 mi West 3.5 mph - N/A   Clear
1:57 AM 21.2 °F 14.9 °F 15.8 °F 80% 30.23 in 10.0 mi WNW 4.6 mph - N/A   Clear
2:16 AM 21.2 °F 14.9 °F 15.8 °F 80% 30.23 in 10.0 mi WNW 4.6 mph - N/A   Clear
2:37 AM 21.2 °F 16.4 °F 15.8 °F 80% 30.24 in 10.0 mi WNW 3.5 mph - N/A   Clear
2:56 AM 21.2 °F - 15.8 °F 80% 30.24 in 10.0 mi Calm Calm - N/A   Clear
3:16 AM 21.2 °F - 15.8 °F 80% 30.24 in 10.0 mi Calm Calm - N/A   Clear
3:36 AM 19.4 °F - 15.8 °F 86% 30.24 in 10.0 mi Calm Calm - N/A   Clear
3:56 AM 19.4 °F - 15.8 °F 86% 30.25 in 10.0 mi Calm Calm - N/A   Clear
4:17 AM 19.4 °F - 15.8 °F 86% 30.26 in 10.0 mi Calm Calm - N/A   Scattered Clouds
4:36 AM 19.4 °F - 17.6 °F 93% 30.26 in 10.0 mi Calm Calm - N/A   Overcast
4:57 AM 19.4 °F - 17.6 °F 93% 30.26 in 10.0 mi Calm Calm - N/A   Overcast
5:16 AM 19.4 °F - 17.6 °F 93% 30.26 in 10.0 mi Calm Calm - N/A   Overcast
5:36 AM 19.4 °F - 17.6 °F 93% 30.27 in 10.0 mi Calm Calm - N/A   Overcast
5:57 AM 21.2 °F - 17.6 °F 86% 30.28 in 10.0 mi Calm Calm - N/A   Overcast
6:16 AM 21.2 °F - 19.4 °F 93% 30.29 in 10.0 mi Calm Calm - N/A   Overcast
6:36 AM 21.2 °F - 19.4 °F 93% 30.29 in 10.0 mi Calm Calm - N/A   Overcast
6:57 AM 21.2 °F - 17.6 °F 86% 30.30 in 10.0 mi Calm Calm - N/A   Overcast
7:16 AM 21.2 °F - 17.6 °F 86% 30.30 in 10.0 mi Calm Calm - N/A   Overcast
7:37 AM 23.0 °F - 17.6 °F 80% 30.31 in 10.0 mi Calm Calm - N/A   Overcast
7:57 AM 21.2 °F - 17.6 °F 86% 30.32 in 10.0 mi Calm Calm - N/A   Overcast
8:16 AM 23.0 °F - 17.6 °F 80% 30.32 in 10.0 mi Calm Calm - N/A   Overcast
8:36 AM 23.0 °F - 17.6 °F 80% 30.33 in 10.0 mi Calm Calm - N/A   Scattered Clouds
8:56 AM 23.0 °F - 17.6 °F 80% 30.35 in 10.0 mi Calm Calm - N/A   Clear
9:17 AM 24.8 °F - 19.4 °F 80% 30.35 in 10.0 mi Calm Calm - N/A   Scattered Clouds
9:36 AM 24.8 °F 20.5 °F 19.4 °F 80% 30.36 in 10.0 mi SSW 3.5 mph - N/A   Scattered Clouds
9:57 AM 26.6 °F 21.2 °F 21.2 °F 80% 30.36 in 10.0 mi SSW 4.6 mph - N/A   Mostly Cloudy
10:16 AM 28.4 °F 24.6 °F 21.2 °F 74% 30.37 in 10.0 mi South 3.5 mph - N/A   Mostly Cloudy
10:36 AM 30.2 °F 25.4 °F 21.2 °F 69% 30.37 in 10.0 mi SSW 4.6 mph - N/A   Overcast
10:57 AM 30.2 °F 26.7 °F 21.2 °F 69% 30.38 in 10.0 mi SE 3.5 mph - N/A   Mostly Cloudy
11:16 AM 32.0 °F 27.5 °F 21.2 °F 64% 30.37 in 10.0 mi ESE 4.6 mph - N/A   Overcast
11:37 AM 30.2 °F 26.7 °F 19.4 °F 64% 30.37 in 10.0 mi SSE 3.5 mph - N/A   Overcast
11:56 AM 32.0 °F - 19.4 °F 60% 30.37 in 10.0 mi Calm Calm - N/A   Mostly Cloudy
12:16 PM 32.0 °F 26.4 °F 21.2 °F 64% 30.36 in 10.0 mi SSE 5.8 mph - N/A   Mostly Cloudy
12:37 PM 32.0 °F 26.4 °F 21.2 °F 64% 30.36 in 10.0 mi South 5.8 mph - N/A   Scattered Clouds
12:56 PM 32.0 °F 28.7 °F 21.2 °F 64% 30.34 in 10.0 mi South 3.5 mph - N/A   Scattered Clouds
1:17 PM 32.0 °F 24.8 °F 21.2 °F 64% 30.33 in 7.0 mi SE 8.1 mph - N/A   Scattered Clouds
1:37 PM 33.8 °F 27.7 °F 21.2 °F 60% 30.33 in 10.0 mi SSE 6.9 mph - N/A   Scattered Clouds
1:56 PM 33.8 °F 30.8 °F 21.2 °F 60% 30.32 in 10.0 mi SE 3.5 mph - N/A   Scattered Clouds
2:17 PM 33.8 °F 29.6 °F 21.2 °F 60% 30.32 in 10.0 mi SSE 4.6 mph - N/A   Scattered Clouds
2:36 PM 33.8 °F 29.6 °F 21.2 °F 60% 30.32 in 10.0 mi SSE 4.6 mph - N/A   Mostly Cloudy
2:57 PM 33.8 °F 29.6 °F 21.2 °F 60% 30.32 in 10.0 mi SW 4.6 mph - N/A   Scattered Clouds
3:16 PM 35.6 °F 30.7 °F 21.2 °F 56% 30.31 in 10.0 mi South 5.8 mph - N/A   Scattered Clouds
3:36 PM 35.6 °F 31.7 °F 21.2 °F 56% 30.30 in 10.0 mi South 4.6 mph - N/A   Mostly Cloudy
3:57 PM 35.6 °F 30.7 °F 23.0 °F 60% 30.30 in 10.0 mi South 5.8 mph - N/A   Mostly Cloudy
4:16 PM 35.6 °F 29.2 °F 21.2 °F 56% 30.29 in 10.0 mi SSE 8.1 mph - N/A   Mostly Cloudy
4:37 PM 35.6 °F 30.7 °F 21.2 °F 56% 30.29 in 10.0 mi SSW 5.8 mph - N/A   Clear
4:57 PM 35.6 °F 31.7 °F 21.2 °F 56% 30.28 in 10.0 mi East 4.6 mph - N/A   Clear
5:17 PM 33.8 °F 27.0 °F 21.2 °F 60% 30.27 in 10.0 mi SSE 8.1 mph - N/A   Clear
5:36 PM 33.8 °F 28.6 °F 21.2 °F 60% 30.28 in 10.0 mi SSE 5.8 mph - N/A   Clear
5:56 PM 32.0 °F 25.6 °F 23.0 °F 69% 30.27 in 10.0 mi SE 6.9 mph - N/A   Scattered Clouds
6:16 PM 32.0 °F 26.4 °F 21.2 °F 64% 30.28 in 10.0 mi South 5.8 mph - N/A   Clear
6:36 PM 30.2 °F 22.6 °F 21.2 °F 69% 30.28 in 10.0 mi South 8.1 mph - N/A   Clear
6:57 PM 28.4 °F 21.2 °F 19.4 °F 69% 30.27 in 10.0 mi SE 6.9 mph - N/A   Clear
7:16 PM 28.4 °F 23.3 °F 19.4 °F 69% 30.27 in 10.0 mi SSE 4.6 mph - N/A   Clear
7:36 PM 28.4 °F 22.2 °F 19.4 °F 69% 30.26 in 10.0 mi SE 5.8 mph - N/A   Clear
7:57 PM 26.6 °F 21.2 °F 19.4 °F 74% 30.27 in 10.0 mi SSE 4.6 mph - N/A   Clear
8:16 PM 26.6 °F 21.2 °F 17.6 °F 69% 30.26 in 10.0 mi SSE 4.6 mph - N/A   Clear
8:37 PM 26.6 °F 21.2 °F 17.6 °F 69% 30.25 in 10.0 mi SSE 4.6 mph - N/A   Clear
8:57 PM 26.6 °F 22.6 °F 17.6 °F 69% 30.25 in 10.0 mi SSE 3.5 mph - N/A   Clear
9:16 PM 26.6 °F 22.6 °F 17.6 °F 69% 30.25 in 10.0 mi SSE 3.5 mph - N/A   Clear
9:37 PM 26.6 °F 20.0 °F 19.4 °F 74% 30.24 in 10.0 mi SE 5.8 mph - N/A   Clear
9:57 PM 26.6 °F 18.2 °F 19.4 °F 74% 30.22 in 10.0 mi SE 8.1 mph - N/A   Clear
10:17 PM 26.6 °F 20.0 °F 19.4 °F 74% 30.21 in 10.0 mi SE 5.8 mph - N/A   Clear
10:36 PM 26.6 °F 20.0 °F 19.4 °F 74% 30.20 in 10.0 mi SE 5.8 mph - N/A   Clear
10:56 PM 26.6 °F 20.0 °F 19.4 °F 74% 30.19 in 10.0 mi SE 5.8 mph - N/A   Clear
11:17 PM 26.6 °F 19.1 °F 21.2 °F 80% 30.18 in 10.0 mi SE 6.9 mph - N/A   Clear
11:36 PM 26.6 °F 20.0 °F 21.2 °F 80% 30.17 in 10.0 mi SE 5.8 mph - N/A   Clear
11:56 PM 26.6 °F 18.2 °F 21.2 °F 80% 30.16 in 10.0 mi SE 8.1 mph - N/A   Clear